TimePDT,TemperatureF,Dew PointF,Humidity,Sea Level PressureIn,VisibilityMPH,Wind Direction,Wind SpeedMPH,Gust SpeedMPH,PrecipitationIn,Events,Conditions,WindDirDegrees,DateUTC
12:15 AM,42.8,33.8,70,30.20,10.0,Calm,Calm,-,N/A,,Clear,0,2012-10-06 07:15:00
12:35 AM,42.8,32.0,66,30.20,10.0,Calm,Calm,-,N/A,,Clear,0,2012-10-06 07:35:00
12:55 AM,41.0,32.0,70,30.20,10.0,Calm,Calm,-,N/A,,Clear,0,2012-10-06 07:55:00
1:15 AM,41.0,32.0,70,30.20,10.0,Calm,Calm,-,N/A,,Clear,0,2012-10-06 08:15:00
1:35 AM,39.2,32.0,75,30.21,10.0,Calm,Calm,-,N/A,,Clear,0,2012-10-06 08:35:00
1:55 AM,39.2,30.2,70,30.21,10.0,Calm,Calm,-,N/A,,Clear,0,2012-10-06 08:55:00
2:15 AM,37.4,30.2,75,30.21,10.0,Calm,Calm,-,N/A,,Clear,0,2012-10-06 09:15:00
2:35 AM,37.4,30.2,75,30.21,10.0,Calm,Calm,-,N/A,,Clear,0,2012-10-06 09:35:00
2:55 AM,37.4,30.2,75,30.20,10.0,Calm,Calm,-,N/A,,Clear,0,2012-10-06 09:55:00
3:15 AM,37.4,30.2,75,30.20,10.0,Calm,Calm,-,N/A,,Clear,0,2012-10-06 10:15:00
3:35 AM,35.6,30.2,81,30.20,10.0,Calm,Calm,-,N/A,,Clear,0,2012-10-06 10:35:00
3:55 AM,37.4,30.2,75,30.20,10.0,Calm,Calm,-,N/A,,Clear,0,2012-10-06 10:55:00
4:15 AM,37.4,30.2,75,30.20,10.0,Calm,Calm,-,N/A,,Clear,0,2012-10-06 11:15:00
4:35 AM,35.6,28.4,75,30.20,10.0,Calm,Calm,-,N/A,,Clear,0,2012-10-06 11:35:00
4:55 AM,35.6,28.4,75,30.20,10.0,Calm,Calm,-,N/A,,Clear,0,2012-10-06 11:55:00
5:15 AM,35.6,30.2,81,30.21,10.0,Calm,Calm,-,N/A,,Clear,0,2012-10-06 12:15:00
5:35 AM,33.8,28.4,81,30.21,10.0,Calm,Calm,-,N/A,,Clear,0,2012-10-06 12:35:00
5:55 AM,33.8,28.4,81,30.21,10.0,Calm,Calm,-,N/A,,Clear,0,2012-10-06 12:55:00
6:15 AM,33.8,28.4,81,30.21,10.0,Calm,Calm,-,N/A,,Clear,0,2012-10-06 13:15:00
6:35 AM,33.8,28.4,81,30.21,10.0,Calm,Calm,-,N/A,,Clear,0,2012-10-06 13:35:00
6:55 AM,33.8,28.4,81,30.21,10.0,Calm,Calm,-,N/A,,Clear,0,2012-10-06 13:55:00
7:15 AM,32.0,28.4,87,30.21,10.0,Calm,Calm,-,N/A,,Clear,0,2012-10-06 14:15:00
7:35 AM,33.8,28.4,81,30.21,10.0,Calm,Calm,-,N/A,,Clear,0,2012-10-06 14:35:00
7:55 AM,33.8,28.4,81,30.21,10.0,Calm,Calm,-,N/A,,Clear,0,2012-10-06 14:55:00
8:15 AM,35.6,28.4,75,30.22,10.0,Calm,Calm,-,N/A,,Clear,0,2012-10-06 15:15:00
8:35 AM,37.4,28.4,70,30.22,10.0,Calm,Calm,-,N/A,,Clear,0,2012-10-06 15:35:00
8:55 AM,39.2,30.2,70,30.22,10.0,Calm,Calm,-,N/A,,Clear,0,2012-10-06 15:55:00
9:15 AM,41.0,30.2,65,30.21,10.0,Calm,Calm,-,N/A,,Clear,0,2012-10-06 16:15:00
9:35 AM,44.6,30.2,57,30.21,10.0,Calm,Calm,-,N/A,,Clear,0,2012-10-06 16:35:00
9:55 AM,46.4,30.2,53,30.21,10.0,Calm,Calm,-,N/A,,Clear,0,2012-10-06 16:55:00
10:15 AM,48.2,32.0,54,30.20,10.0,Calm,Calm,-,N/A,,Clear,0,2012-10-06 17:15:00
10:35 AM,51.8,33.8,50,30.20,10.0,Calm,Calm,-,N/A,,Clear,0,2012-10-06 17:35:00
10:55 AM,55.4,33.8,44,30.20,10.0,Calm,Calm,-,N/A,,Clear,0,2012-10-06 17:55:00
11:15 AM,59.0,32.0,36,30.19,10.0,NNW,8.1,-,N/A,,Clear,340,2012-10-06 18:15:00
11:35 AM,60.8,30.2,31,30.18,10.0,NNW,9.2,-,N/A,,Clear,330,2012-10-06 18:35:00
11:55 AM,62.6,30.2,30,30.18,10.0,NNW,8.1,-,N/A,,Clear,340,2012-10-06 18:55:00
12:15 PM,64.4,30.2,28,30.17,10.0,NW,5.8,-,N/A,,Clear,310,2012-10-06 19:15:00
12:35 PM,66.2,30.2,26,30.17,10.0,NNW,5.8,-,N/A,,Clear,330,2012-10-06 19:35:00
12:55 PM,68.0,32.0,26,30.16,10.0,North,5.8,-,N/A,,Clear,360,2012-10-06 19:55:00
1:15 PM,69.8,30.2,23,30.15,10.0,North,10.4,-,N/A,,Clear,350,2012-10-06 20:15:00
1:35 PM,69.8,30.2,23,30.14,10.0,North,6.9,-,N/A,,Clear,350,2012-10-06 20:35:00
1:55 PM,71.6,30.2,22,30.13,10.0,NW,5.8,-,N/A,,Clear,310,2012-10-06 20:55:00
2:15 PM,73.4,30.2,20,30.12,10.0,NW,6.9,-,N/A,,Clear,320,2012-10-06 21:15:00
2:35 PM,73.4,30.2,20,30.11,10.0,NNW,6.9,-,N/A,,Clear,330,2012-10-06 21:35:00
2:55 PM,73.4,30.2,20,30.11,10.0,NW,4.6,-,N/A,,Clear,320,2012-10-06 21:55:00
3:15 PM,75.2,30.2,19,30.11,10.0,NW,4.6,-,N/A,,Clear,310,2012-10-06 22:15:00
3:35 PM,75.2,30.2,19,30.10,10.0,North,4.6,-,N/A,,Clear,350,2012-10-06 22:35:00
4:15 PM,75.2,30.2,19,30.08,10.0,WSW,4.6,-,N/A,,Clear,250,2012-10-06 23:15:00
4:35 PM,75.2,30.2,19,30.08,10.0,WNW,4.6,-,N/A,,Clear,300,2012-10-06 23:35:00
4:55 PM,75.2,32.0,21,30.07,10.0,Calm,Calm,-,N/A,,Clear,0,2012-10-06 23:55:00
5:15 PM,73.4,30.2,20,30.07,10.0,NNW,8.1,-,N/A,,Clear,340,2012-10-07 00:15:00
5:35 PM,73.4,32.0,22,30.07,10.0,NNW,5.8,-,N/A,,Clear,340,2012-10-07 00:35:00
5:55 PM,73.4,32.0,22,30.07,10.0,NNW,5.8,-,N/A,,Clear,340,2012-10-07 00:55:00
6:15 PM,71.6,30.2,22,30.07,10.0,North,6.9,-,N/A,,Clear,10,2012-10-07 01:15:00
6:35 PM,69.8,33.8,27,30.07,10.0,Calm,Calm,-,N/A,,Clear,0,2012-10-07 01:35:00
6:55 PM,62.6,37.4,39,30.07,1.8,Calm,Calm,-,N/A,,Clear,0,2012-10-07 01:55:00
7:15 PM,59.0,35.6,42,30.08,7.0,Calm,Calm,-,N/A,,Clear,0,2012-10-07 02:15:00
7:35 PM,57.2,35.6,44,30.08,10.0,Calm,Calm,-,N/A,,Clear,0,2012-10-07 02:35:00
7:55 PM,55.4,35.6,47,30.08,10.0,Calm,Calm,-,N/A,,Clear,0,2012-10-07 02:55:00
8:15 PM,55.4,33.8,44,30.08,10.0,Calm,Calm,-,N/A,,Clear,0,2012-10-07 03:15:00
8:35 PM,53.6,35.6,51,30.08,10.0,Calm,Calm,-,N/A,,Clear,0,2012-10-07 03:35:00
8:55 PM,51.8,35.6,54,30.09,10.0,Calm,Calm,-,N/A,,Clear,0,2012-10-07 03:55:00
9:15 PM,50.0,35.6,58,30.08,10.0,Calm,Calm,-,N/A,,Clear,0,2012-10-07 04:15:00
9:35 PM,50.0,35.6,58,30.08,10.0,Calm,Calm,-,N/A,,Clear,0,2012-10-07 04:35:00
9:55 PM,48.2,35.6,62,30.08,10.0,Calm,Calm,-,N/A,,Clear,0,2012-10-07 04:55:00
10:15 PM,48.2,35.6,62,30.08,10.0,Calm,Calm,-,N/A,,Clear,0,2012-10-07 05:15:00
10:35 PM,46.4,33.8,62,30.08,10.0,Calm,Calm,-,N/A,,Clear,0,2012-10-07 05:35:00
10:55 PM,44.6,33.8,66,30.08,10.0,Calm,Calm,-,N/A,,Clear,0,2012-10-07 05:55:00
11:15 PM,44.6,33.8,66,30.08,10.0,Calm,Calm,-,N/A,,Clear,0,2012-10-07 06:15:00
11:35 PM,42.8,35.6,76,30.08,10.0,Calm,Calm,-,N/A,,Clear,0,2012-10-07 06:35:00
11:55 PM,42.8,33.8,70,30.08,10.0,Calm,Calm,-,N/A,,Clear,0,2012-10-07 06:55:00